Weather reports worldwide

Advertisment
Decimomannu, Italy (16546): temperature & dewpoint: 15.05.2019 13:00:00 - 21.05.2019 13:00:00 (CEST)Decimomannu, Italy (16546): wind speed: 15.05.2019 13:00:00 - 21.05.2019 13:00:00 (CEST)Decimomannu, Italy (16546): wind direction: 15.05.2019 13:00:00 - 21.05.2019 13:00:00 (CEST)Decimomannu, Italy (16546): reduced air pressure: 15.05.2019 13:00:00 - 21.05.2019 13:00:00 (CEST)Decimomannu, Italy (16546): visibility: 15.05.2019 13:00:00 - 21.05.2019 13:00:00 (CEST)
Date & Time tt [°C] td [°C] ff [km/h] ff [kn] dd ppp [hPa] vv [km]
21.05.2019 13:00:00 25,0 17,0 8 4 WSW - 10
21.05.2019 12:00:00 23,0 15,0 11 6 SSW - 10
21.05.2019 11:00:00 22,2 16,5 13 7 SW 1015,1 15
21.05.2019 10:00:00 21,0 18,0 5 3 S - 10
21.05.2019 09:00:00 17,0 15,0 5 3 W - 10
21.05.2019 08:00:00 14,0 12,4 4 2 E 1014,7 10
21.05.2019 07:00:00 10,0 9,0 2 1 N - 10
21.05.2019 06:00:00 10,0 9,0 4 2 E - 10
21.05.2019 05:00:00 11,2 10,0 4 2 NNW 1014,1 10
21.05.2019 04:00:00 12,0 11,0 4 2 ESE - 10
21.05.2019 03:00:00 12,0 11,0 4 2 ESE - 10
21.05.2019 02:00:00 12,0 11,1 5 3 E 1014,5 10
21.05.2019 01:00:00 13,0 12,0 5 3 NE - 10
21.05.2019 00:00:00 15,0 14,0 9 5 NW - 10
20.05.2019 23:00:00 15,0 14,2 8 4 W 1014,5 20
20.05.2019 22:00:00 16,0 15,0 4 2 SW - 10
20.05.2019 21:00:00 17,0 15,0 13 7 NW - 10
20.05.2019 20:00:00 18,4 15,7 21 11 WSW 1013,1 25
20.05.2019 19:00:00 20,0 16,0 28 15 WSW - 10
20.05.2019 18:00:00 21,0 15,0 26 14 W - 10
20.05.2019 17:00:00 20,2 13,2 22 12 WNW 1012,6 20
20.05.2019 16:00:00 20,0 13,0 28 15 WNW - 10
20.05.2019 15:00:00 21,0 13,0 29 16 WNW - 10
20.05.2019 14:00:00 20,0 13,7 29 16 W 1011,8 20
20.05.2019 13:00:00 - - - - - - -
20.05.2019 12:00:00 17,0 15,0 15 8 W - 10
20.05.2019 11:00:00 17,8 15,4 18 10 W 1011,7 15
20.05.2019 10:00:00 16,0 13,0 9 5 W - 10
20.05.2019 09:00:00 15,0 13,0 2 1 NNE - 10
20.05.2019 08:00:00 13,2 11,4 4 2 SSE 1010,5 15
20.05.2019 07:00:00 13,0 11,0 8 4 N - 10
20.05.2019 06:00:00 13,0 11,0 11 6 SW - 10
20.05.2019 05:00:00 12,4 10,8 2 1 E 1009,1 12
20.05.2019 04:00:00 12,0 10,0 4 2 SW - 10
20.05.2019 03:00:00 13,0 11,0 16 9 WSW - 10
20.05.2019 02:00:00 12,4 10,5 4 2 S 1009,7 14
20.05.2019 01:00:00 13,0 11,0 5 3 NNW - 10
20.05.2019 00:00:00 14,0 12,0 2 1 E - 10
19.05.2019 23:00:00 14,6 13,0 4 2 ENE 1009,8 14
19.05.2019 22:00:00 16,0 14,0 15 8 WSW - 10
19.05.2019 21:00:00 16,0 15,0 16 9 WSW - 10
19.05.2019 20:00:00 19,0 14,3 21 11 WSW 1007,9 25
19.05.2019 19:00:00 20,0 13,0 28 15 WSW - 10
19.05.2019 18:00:00 21,0 12,0 31 17 WSW - 10
19.05.2019 17:00:00 22,0 12,3 26 14 WSW 1007,6 25
19.05.2019 16:00:00 22,0 13,0 21 11 W - 10
19.05.2019 15:00:00 21,0 11,0 15 8 WNW - 10
19.05.2019 14:00:00 21,0 10,5 18 10 W 1007,4 25
19.05.2019 13:00:00 22,0 11,0 22 12 W - 10
19.05.2019 12:00:00 17,0 14,0 22 12 NW - 10
19.05.2019 11:00:00 19,0 12,3 22 12 W 1008,0 20
19.05.2019 10:00:00 17,0 13,0 11 6 WNW - 10
19.05.2019 09:00:00 16,0 13,0 9 5 W - 10
19.05.2019 08:00:00 13,0 11,2 4 2 NNW 1007,9 12
19.05.2019 07:00:00 9,0 8,0 2 1 W - 10
19.05.2019 06:00:00 11,0 9,0 4 2 N - 10
19.05.2019 05:00:00 10,6 9,0 2 1 SSE 1007,7 12
19.05.2019 04:00:00 11,0 9,0 2 1 ESE - 10
19.05.2019 03:00:00 12,0 11,0 4 2 NW - 10
19.05.2019 02:00:00 12,6 11,0 8 4 WNW 1007,9 15
19.05.2019 01:00:00 13,0 11,0 8 4 NNE - 10
19.05.2019 00:00:00 14,0 12,0 13 7 NNW - 10
18.05.2019 23:00:00 15,0 13,5 15 8 NW 1007,8 20
18.05.2019 22:00:00 15,0 13,0 11 6 WNW - 10
18.05.2019 21:00:00 16,0 14,0 21 11 NW - 10
18.05.2019 20:00:00 17,2 15,0 22 12 NW 1006,7 20
18.05.2019 19:00:00 19,0 15,0 26 14 NW - 10
18.05.2019 18:00:00 19,0 14,0 28 15 NW - 10
18.05.2019 17:00:00 19,0 13,8 26 14 NW 1005,6 25
18.05.2019 16:00:00 21,0 13,0 28 15 NW - 10
18.05.2019 15:00:00 22,0 15,0 26 14 NW - 10
18.05.2019 14:00:00 21,0 13,4 26 14 NW 1005,2 25
18.05.2019 13:00:00 20,0 13,0 26 14 NW - 10
18.05.2019 12:00:00 20,0 13,0 31 17 NW - 10
18.05.2019 11:00:00 17,4 12,9 24 13 NW 1005,1 20
18.05.2019 10:00:00 17,0 13,0 26 14 WNW - 10
18.05.2019 09:00:00 16,0 14,0 11 6 WNW - 10
18.05.2019 08:00:00 15,8 14,0 15 8 WNW 1003,2 15
18.05.2019 07:00:00 15,0 13,0 15 8 W - 10
18.05.2019 06:00:00 16,0 14,0 26 14 WSW - 10
18.05.2019 05:00:00 16,0 14,4 24 13 SW 1002,9 15
18.05.2019 04:00:00 16,0 14,0 26 14 WSW - 10
18.05.2019 03:00:00 16,0 15,0 26 14 SW - 10
18.05.2019 02:00:00 16,4 14,6 28 15 WSW 1003,5 15
18.05.2019 01:00:00 16,0 14,0 24 13 SW - 10
18.05.2019 00:00:00 16,0 14,0 13 7 SSW - 10
17.05.2019 23:00:00 16,0 14,0 13 7 WSW 1004,8 15
17.05.2019 22:00:00 16,0 14,0 16 9 SW - 10
17.05.2019 21:00:00 17,0 15,0 18 10 SW - 10
17.05.2019 20:00:00 18,4 16,6 15 8 S 1003,5 15
17.05.2019 19:00:00 20,0 18,0 13 7 S - 10
17.05.2019 18:00:00 20,0 17,0 16 9 SSE - 10
17.05.2019 17:00:00 18,2 16,5 26 14 SSE 1003,6 15
17.05.2019 16:00:00 19,0 17,0 34 18 SE - 10
17.05.2019 15:00:00 19,0 17,0 37 20 SE - 10
17.05.2019 14:00:00 20,2 16,3 37 20 SSE 1004,4 15
17.05.2019 13:00:00 21,0 12,0 31 17 SE - 10
17.05.2019 12:00:00 20,0 12,0 37 20 SE - 10
17.05.2019 11:00:00 20,2 12,4 34 18 SE 1005,1 15
17.05.2019 10:00:00 19,0 14,0 24 13 ESE - 10
17.05.2019 09:00:00 - - - - - - -
17.05.2019 08:00:00 15,0 13,0 22 12 SE 1007,3 12
17.05.2019 07:00:00 11,0 9,0 9 5 ESE - 10
17.05.2019 06:00:00 11,0 9,0 9 5 E - 10
17.05.2019 05:00:00 11,0 9,4 11 6 E 1008,2 15
17.05.2019 04:00:00 12,0 10,0 9 5 E - 10
17.05.2019 03:00:00 12,0 11,0 9 5 ESE - 10
17.05.2019 02:00:00 12,8 11,2 11 6 SE 1010,2 10
17.05.2019 01:00:00 14,0 12,0 11 6 SE - 10
17.05.2019 00:00:00 13,0 12,0 11 6 ESE - 10
16.05.2019 23:00:00 13,8 12,2 9 5 E 1011,1 15
16.05.2019 22:00:00 14,0 13,0 11 6 SE - 10
16.05.2019 21:00:00 15,0 13,0 13 7 ESE - 10
16.05.2019 20:00:00 17,0 13,5 18 10 ESE 1010,7 15
16.05.2019 19:00:00 19,0 14,0 21 11 ESE - 10
16.05.2019 18:00:00 21,0 13,0 18 10 SE - 10
16.05.2019 17:00:00 21,2 12,9 24 13 SE 1010,7 20
16.05.2019 16:00:00 22,0 11,0 18 10 ESE - 10
16.05.2019 15:00:00 22,0 11,0 9 5 WSW - 10
16.05.2019 14:00:00 21,0 10,2 9 5 WNW 1011,1 20
16.05.2019 13:00:00 19,0 10,0 18 10 NNW - 10
16.05.2019 12:00:00 19,0 11,0 15 8 NW - 10
16.05.2019 11:00:00 18,8 11,1 22 12 NW 1011,5 20
16.05.2019 10:00:00 16,0 11,0 28 15 NNW - 10
16.05.2019 09:00:00 14,0 10,0 28 15 NNW - 10
16.05.2019 08:00:00 13,2 10,4 22 12 NW 1011,0 20
16.05.2019 07:00:00 8,0 7,0 13 7 NW - 10
16.05.2019 06:00:00 9,0 8,0 13 7 NNW - 10
16.05.2019 05:00:00 8,0 7,4 9 5 NNW 1011,0 20
16.05.2019 04:00:00 8,0 7,0 9 5 NNW - 10
16.05.2019 03:00:00 10,0 8,0 18 10 NW - 10
16.05.2019 02:00:00 10,0 8,4 15 8 NW 1009,8 20
16.05.2019 01:00:00 10,0 8,0 21 11 NW - 10
16.05.2019 00:00:00 10,0 9,0 18 10 NW - 10
15.05.2019 23:00:00 10,8 8,9 21 11 WNW 1009,8 20
15.05.2019 22:00:00 11,0 9,0 29 16 WNW - 10
15.05.2019 21:00:00 13,0 11,0 26 14 WNW - 10
15.05.2019 20:00:00 14,8 12,3 22 12 WNW 1006,9 20
15.05.2019 19:00:00 18,0 15,0 22 12 NW - 10
15.05.2019 18:00:00 19,0 13,0 28 15 NW - 10
15.05.2019 17:00:00 19,0 10,0 22 12 W 1005,9 10
15.05.2019 16:00:00 20,0 13,0 31 17 WSW - 10
15.05.2019 15:00:00 21,0 12,0 35 19 WSW - 10
15.05.2019 14:00:00 20,0 8,4 28 15 WSW 1008,0 12
15.05.2019 13:00:00 19,0 10,0 22 12 W - 10

tt = temperature
td = dewpoint
ff = wind speed
dd = wind direction
ppp = reduced air pressure
vv = visibility

Next stations